Weather History for Paso Robles, CA

Change the Weather History Date:

Thursday, January 19, 2012

  Actual Average Record
Temperature  
Mean Temperature 38 °F 47 °F  
Max Temperature 56 °F 60 °F 78 °F (1994)
Min Temperature 19 °F 35 °F 19 °F (2012)
Degree Days  
Heating Degree Days 27 18  
Month to date heating degree days 345 347  
Since 1 July heating degree days 1454 1471  
Cooling Degree Days 0 0  
Month to date cooling degree days 0 0  
Year to date cooling degree days 0 0  
Moisture  
Dew Point 21 °F    
Average Humidity 47    
Maximum Humidity 71    
Minimum Humidity 22    
Precipitation  
Precipitation 0.00 in 0.09 in 3.09 in (1969)
Month to date precipitation 0.00 1.70  
Year to date precipitation 0.00 1.70  
Since 1 July precipitation 2.81 5.69  
Sea Level Pressure  
Sea Level Pressure 30.18 in    
Wind  
Wind Speed 2 mph (NW)    
Max Wind Speed 13 mph    
Max Gust Speed 20 mph    
Visibility 10 miles    
Events Rain    
T = Trace of Precipitation, MM = Missing Value Source: NWS Daily Summary

Daily Weather History Graph

Daily Weather History Graph

Search for Another Location

Airport:

Trip Planner

Search our weather history database for the weather conditions in past years. The results will help you decide how hot, cold, wet, or windy it might be!

Date:

Astronomy

Jan. 19, 2012 Rise Set
Actual Time 7:10 AM PST 5:16 PM PST
Civil Twilight 6:42 AM PST 5:43 PM PST
Nautical Twilight 6:11 AM PST 6:15 PM PST
Astronomical Twilight 5:41 AM PST 6:45 PM PST
Moon 3:50 AM PST (1/19) 1:55 PM PST (1/19)
Length of Visible Light 11h 01m
Length of Day
10h 05m
Waning Crescent, 15% of the Moon is Illuminated
Jan 19
Waning Crescent
Jan 22
New
Jan 30
First Quarter
Feb 7
Full
Feb 14
Last Quarter

Hourly Weather History & Observations

Time (PST) Temp. Windchill Dew Point Humidity Pressure Visibility Wind Dir Wind Speed Gust Speed Precip Events Conditions
12:53 AM 28.0 °F - 14.0 °F 56% 30.27 in 10.0 mi Calm Calm - N/A   Clear
1:53 AM 28.9 °F - 16.0 °F 58% 30.26 in 10.0 mi Calm Calm - N/A   Clear
2:53 AM 24.1 °F 18.2 °F 12.9 °F 62% 30.25 in 10.0 mi SSE 4.6 mph - N/A   Clear
3:53 AM 25.0 °F - 15.1 °F 66% 30.24 in 10.0 mi Calm Calm - N/A   Clear
4:53 AM 23.0 °F 17.0 °F 14.0 °F 68% 30.24 in 10.0 mi East 4.6 mph - N/A   Clear
5:53 AM 21.9 °F - 14.0 °F 72% 30.24 in 10.0 mi Calm Calm - N/A   Clear
6:53 AM 21.0 °F - 12.0 °F 68% 30.25 in 10.0 mi Calm Calm - N/A   Clear
7:53 AM 21.9 °F - 14.0 °F 72% 30.25 in 10.0 mi Calm Calm - N/A   Clear
8:53 AM 28.9 °F - 16.0 °F 58% 30.25 in 10.0 mi Calm Calm - N/A   Clear
9:53 AM 32.0 °F - 17.6 °F 55% 30.24 in 10.0 mi Calm Calm - N/A   Clear
10:53 AM 41.0 °F - 18.0 °F 40% 30.24 in 10.0 mi Calm Calm - N/A   Clear
11:53 AM 46.0 °F - 19.0 °F 34% 30.19 in 10.0 mi Calm Calm - N/A   Clear
12:53 PM 48.9 °F - 19.0 °F 31% 30.15 in 10.0 mi Calm Calm - N/A   Clear
1:53 PM 55.0 °F - 17.1 °F 23% 30.12 in 10.0 mi Calm Calm - N/A   Clear
2:53 PM 55.9 °F - 17.1 °F 22% 30.12 in 10.0 mi NW 5.8 mph - N/A   Clear
3:53 PM 55.0 °F - 19.9 °F 25% 30.11 in 10.0 mi NNW 4.6 mph - N/A   Clear
4:53 PM 53.6 °F - 23.0 °F 30% 30.11 in 10.0 mi NW 10.4 mph - N/A   Clear
5:53 PM 50.0 °F - 27.0 °F 41% 30.12 in 10.0 mi WNW 8.1 mph - N/A   Clear
6:53 PM 48.2 °F - 33.8 °F 58% 30.12 in 10.0 mi WNW 6.9 mph - N/A   Clear
7:53 PM 48.0 °F - 33.1 °F 56% 30.12 in 10.0 mi South 3.5 mph - N/A   Clear
8:53 PM 46.9 °F - 33.1 °F 59% 30.14 in 10.0 mi Calm Calm - N/A   Overcast
9:53 PM 46.0 °F 44.8 °F 34.0 °F 63% 30.12 in 10.0 mi ENE 3.5 mph - 0.00 in Rain Light Rain
10:53 PM 45.0 °F - 35.1 °F 68% 30.12 in 10.0 mi Calm Calm - 0.00 in   Scattered Clouds
11:53 PM 42.1 °F - 33.1 °F 70% 30.13 in 10.0 mi Calm Calm - N/A   Scattered Clouds